Dunkirk, NY

9:49 AM EDT on May 25, 2017 (GMT -0400)
Chautauqua County-Dunkirk

Weather History for KDKK - July, 2013

Change the Weather History Date:

Wednesday, July 3, 2013

  Actual Average Record
Temperature  
Mean Temperature 72 °F -  
Max Temperature 84 °F 79 °F 94 °F (1934)
Min Temperature 62 °F 60 °F 46 °F (2007)
Cooling Degree Days 7    
Growing Degree Days 22 (Base 50)    
Moisture  
Dew Point 67 °F    
Average Humidity 82    
Maximum Humidity 100    
Minimum Humidity 65    
Precipitation  
Precipitation 0.09 in - - ()
Sea Level Pressure  
Sea Level Pressure 30.11 in    
Wind  
Wind Speed 6 mph (SW)    
Max Wind Speed 15 mph    
Max Gust Speed 20 mph    
Visibility 8 miles    
Events Rain , Thunderstorm    
Averages and records for this station are not official NWS values.
T = Trace of Precipitation, MM = Missing Value Source: NWS Daily Summary

Daily Weather History Graph

Daily Weather History Graph

Search for Another Location

Airport or City:

Trip Planner

Search our weather history database for the weather conditions in past years. The results will help you decide how hot, cold, wet, or windy it might be!

Date:

Astronomy

Jul. 03, 2013 Rise Set
Actual Time 5:44 AM EDT 8:57 PM EDT
Civil Twilight 5:10 AM EDT 9:32 PM EDT
Nautical Twilight 4:25 AM EDT 10:16 PM EDT
Astronomical Twilight 3:31 AM EDT 11:10 PM EDT
Moon 2:24 AM EDT (7/3) 5:04 PM EDT (7/3)
Length of Visible Light 16h 22m
Length of Day
15h 12m
Waning Crescent, 18% of the Moon is Illuminated
Jul 3
Waning Crescent
Jul 8
New
Jul 15
First Quarter
Jul 22
Full
Jul 29
Last Quarter

Hourly Weather History & Observations

Time (EDT) Temp. Heat Index Dew Point Humidity Pressure Visibility Wind Dir Wind Speed Gust Speed Precip Events Conditions
12:53 AM 66.0 °F - 64.9 °F 96% 30.08 in 5.0 mi Variable 3.5 mph - N/A   Mostly Cloudy
1:53 AM 66.9 °F - 64.9 °F 93% 30.07 in 5.0 mi East 3.5 mph - N/A   Clear
2:53 AM 64.9 °F - 63.0 °F 93% 30.08 in 4.0 mi Calm Calm - N/A   Scattered Clouds
3:53 AM 64.0 °F - 63.0 °F 96% 30.07 in 4.0 mi SSW 6.9 mph - N/A   Clear
4:42 AM 62.6 °F - 62.6 °F 100% 30.08 in 1.8 mi SSW 6.9 mph - N/A   Clear
4:53 AM 63.0 °F - 61.0 °F 93% 30.08 in 1.2 mi SSW 6.9 mph - N/A   Clear
5:04 AM 62.6 °F - 60.8 °F 94% 30.08 in 3.0 mi SSW 5.8 mph - N/A   Clear
5:53 AM 62.1 °F - 61.0 °F 96% 30.09 in 4.0 mi Variable 5.8 mph - N/A   Clear
6:53 AM 66.0 °F - 64.0 °F 93% 30.11 in 9.0 mi SSW 8.1 mph - N/A   Clear
7:53 AM 75.0 °F - 69.1 °F 82% 30.12 in 10.0 mi SSW 15.0 mph - N/A   Clear
8:53 AM 77.0 °F - 69.1 °F 76% 30.14 in 10.0 mi SSW 15.0 mph 19.6 mph N/A   Clear
9:53 AM 78.1 °F - 70.0 °F 76% 30.14 in 10.0 mi SSW 10.4 mph - N/A   Partly Cloudy
10:53 AM 79.0 °F - 70.0 °F 74% 30.14 in 10.0 mi SSW 13.8 mph - N/A   Partly Cloudy
11:53 AM 81.0 °F 84.1 °F 69.1 °F 67% 30.13 in 10.0 mi West 6.9 mph - N/A   Scattered Clouds
12:53 PM 82.9 °F 87.0 °F 70.0 °F 65% 30.13 in 10.0 mi West 11.5 mph 17.3 mph N/A   Mostly Cloudy
1:53 PM 79.0 °F - 68.0 °F 69% 30.12 in 10.0 mi NNW 8.1 mph - N/A   Mostly Cloudy
2:53 PM 82.0 °F 85.5 °F 69.1 °F 65% 30.11 in 10.0 mi NW 8.1 mph - N/A   Partly Cloudy
3:53 PM 77.0 °F - 70.0 °F 79% 30.11 in 6.0 mi Variable 6.9 mph - 0.03 in Rain Light Rain
4:53 PM 77.0 °F - 69.1 °F 76% 30.10 in 10.0 mi WNW 8.1 mph - 0.00 in   Scattered Clouds
5:53 PM 81.0 °F 84.1 °F 69.1 °F 67% 30.09 in 10.0 mi Variable 3.5 mph - N/A   Clear
6:53 PM 80.1 °F 82.9 °F 69.1 °F 69% 30.10 in 10.0 mi WNW 8.1 mph - N/A   Clear
7:53 PM 79.0 °F - 66.9 °F 66% 30.12 in 9.0 mi SSW 6.9 mph - N/A   Partly Cloudy
8:53 PM 75.9 °F - 69.1 °F 79% 30.11 in 10.0 mi SSW 5.8 mph - N/A   Partly Cloudy
9:33 PM 75.2 °F - 71.6 °F 89% 30.13 in 9.0 mi SSW 5.8 mph - N/A Thunderstorm Partly Cloudy
9:53 PM 75.0 °F - 70.0 °F 84% 30.13 in 9.0 mi South 4.6 mph - N/A Thunderstorm Partly Cloudy
10:41 PM 77.0 °F - 66.2 °F 69% 30.14 in 10.0 mi Variable 3.5 mph - 0.01 in Rain Light Rain
10:53 PM 73.0 °F - 69.1 °F 87% 30.13 in 10.0 mi SSW 8.1 mph - 0.01 in Rain Light Rain
11:51 PM 71.6 °F - 69.8 °F 94% 30.16 in 6.0 mi West 10.4 mph - 0.05 in Rain , Thunderstorm Light Rain
11:53 PM 72.0 °F - 69.1 °F 91% 30.15 in 6.0 mi West 8.1 mph - 0.05 in Rain , Thunderstorm Light Rain